EW4195 Weather Reports


time (UTC)temp
C
wind
direction
speed
KPH
gust
KPH
rain 1hr
cm
rain 24hr
cm
rain mn
cm
humidity
%
barometer
mb
20260906141232 24 157 9.7 22.5 0.00 0.00 0.00 32 1019.7
20260906140222 24 234 12.9 24.1 0.00 0.00 0.00 34 1019.7
20260906132934 25 223 8.0 20.9 0.00 0.00 0.00 37 1019.9
20260906131902 25 224 9.7 22.5 0.00 0.00 0.00 34 1020.0
20260906130914 25 214 8.0 22.5 0.00 0.00 0.00 35 1020.1
20260906125848 24 225 9.7 19.3 0.00 0.00 0.00 36 1020.2
20260906124822 24 192 9.7 24.1 0.00 0.00 0.00 34 1020.2
20260906123830 25 225 12.9 32.2 0.00 0.00 0.00 35 1020.4
20260906122806 25 213 12.9 32.2 0.00 0.00 0.00 35 1020.5
20260906121737 25 233 11.3 27.4 0.00 0.00 0.00 32 1020.7
20260906120729 24 189 9.7 24.1 0.00 0.00 0.00 27 1020.8
20260906115657 24 203 11.3 27.4 0.00 0.00 0.00 26 1020.9
20260906114711 24 178 12.9 27.4 0.00 0.00 0.00 25 1020.9
20260906113731 24 228 11.3 27.4 0.00 0.00 0.00 24 1021.0
20260906112711 23 257 11.3 27.4 0.00 0.00 0.00 21 1021.0
20260906111706 23 173 11.3 27.4 0.00 0.00 0.00 18 1021.1
20260906105555 23 194 11.3 20.9 0.00 0.00 0.00 13 1021.1
20260906104525 23 194 9.7 22.5 0.00 0.00 0.00 10 1021.2
20260906103454 22 203 9.7 24.1 0.00 0.00 0.00 8 1021.3
20260906102440 22 180 8.0 25.7 0.00 0.00 0.00 6 1021.5
20260906101453 22 173 11.3 25.7 0.00 0.00 0.00 3 1021.5
20260906100501 22 166 12.9 25.7 0.00 0.00 0.00 3 1021.6
20260906095512 21 227 11.3 19.3 0.00 0.00 0.00 2 1021.5
20260906094552 21 189 11.3 25.7 0.00 0.00 0.00 1 1021.7
20260906093607 21 170 9.7 29.0 0.00 0.00 0.00 1 1021.7
20260906092626 21 146 8.0 29.0 0.00 0.00 0.00 1 1021.9
20260906091643 21 212 9.7 24.1 0.00 0.00 0.00 1 1022.0
20260906090707 21 169 9.7 24.1 0.00 0.00 0.00 1 1022.1
20260906084547 20 165 12.9 24.1 0.00 0.00 0.00 1 1022.2
20260906082444 20 171 8.0 19.3 0.00 0.00 0.00 1 1022.3
20260906081449 19 166 8.0 17.7 0.00 0.00 0.00 1 1022.4
20260906080442 18 149 4.8 16.1 0.00 0.00 0.00 1 1022.5
20260906075427 17 168 6.4 14.5 0.00 0.00 0.00 1 1022.5
20260906074416 17 126 1.6 11.3 0.00 0.00 0.00 1 1022.6
20260906073406 16 127 0.0 0.0 0.00 0.00 0.00 1 1022.7
20260906072415 16 169 0.0 0.0 0.00 0.00 0.00 1 1022.8
20260906071423 16 171 0.0 0.0 0.00 0.00 0.00 1 1023.0
20260906070423 16 173 0.0 0.0 0.00 0.00 0.00 1 1023.0
20260906065444 15 175 0.0 0.0 0.00 0.00 0.00 1 1022.9
20260906063239 15 176 0.0 0.0 0.00 0.00 0.00 1 1022.9
20260906061119 15 180 1.6 9.7 0.00 0.00 0.00 1 1023.0
20260906060055 15 186 3.2 9.7 0.00 0.00 0.00 1 1023.0
20260906055024 15 194 0.0 0.0 0.00 0.00 0.00 1 1023.0
20260906054039 14 178 0.0 0.0 0.00 0.00 0.00 1 1023.1
20260906053054 14 178 0.0 0.0 0.00 0.00 0.00 1 1023.1
20260906052110 14 178 0.0 0.0 0.00 0.00 0.00 1 1023.1
20260906045949 14 183 0.0 0.0 0.00 0.00 0.00 1 1023.0
20260906045006 14 186 0.0 0.0 0.00 0.00 0.00 1 1023.1
20260906043940 14 180 0.0 0.0 0.00 0.00 0.00 1 1022.9
20260906043002 13 171 0.0 0.0 0.00 0.00 0.00 1 1023.0
20260906042020 13 171 0.0 0.0 0.00 0.00 0.00 1 1023.2
20260906041044 13 171 0.0 0.0 0.00 0.00 0.00 1 1023.2
20260906035005 13 174 0.0 0.0 0.00 0.00 0.00 1 1023.1
20260906033932 13 172 0.0 0.0 0.00 0.00 0.00 1 1023.2
20260906031747 14 178 0.0 4.8 0.00 0.00 0.00 1 1023.7
20260906030746 15 187 4.8 11.3 0.00 0.00 0.00 1 1023.7
20260906024644 15 205 3.2 6.4 0.00 0.00 0.00 1 1023.9
20260906023707 15 196 4.8 6.4 0.00 0.00 0.00 1 1023.9
20260906021541 15 193 3.2 6.4 0.00 0.00 0.00 1 1024.1
20260906020548 15 189 4.8 8.0 0.00 0.00 0.00 1 1024.0
20260906015609 15 182 4.8 8.0 0.00 0.00 0.00 1 1024.1
20260906014548 16 194 3.2 8.0 0.00 0.00 0.00 1 1024.2
20260906012414 16 194 3.2 6.4 0.00 0.00 0.00 1 1024.2
20260906010248 16 197 3.2 6.4 0.00 0.00 0.00 1 1024.4
20260906005218 16 196 3.2 6.4 0.00 0.00 0.00 1 1024.5
20260906004202 16 225 1.6 4.8 0.00 0.00 0.00 1 1024.4
20260906003211 16 228 1.6 4.8 0.00 0.00 0.00 1 1024.4
20260906001054 17 236 1.6 9.7 0.00 0.00 0.00 1 1024.6
20260906000055 17 244 3.2 9.7 0.00 0.00 0.00 1 1024.7
20260905235045 17 220 1.6 6.4 0.00 0.00 0.00 1 1024.6
20260905234011 17 203 1.6 6.4 0.00 0.00 0.00 1 1024.6
20260905232946 17 196 3.2 8.0 0.00 0.00 0.00 1 1024.5
20260905231928 17 231 3.2 11.3 0.00 0.00 0.00 1 1024.5
20260905230945 17 202 4.8 11.3 0.00 0.00 0.00 1 1024.5
20260905225933 17 202 4.8 9.7 0.00 0.00 0.00 1 1024.5
20260905224858 17 219 3.2 11.3 0.00 0.00 0.00 1 1024.5
20260905222705 17 221 6.4 11.3 0.00 0.00 0.00 1 1024.3
20260905221729 17 219 4.8 11.3 0.00 0.00 0.00 1 1024.2
20260905220748 17 221 3.2 12.9 0.00 0.00 0.00 1 1024.0
20260905214702 17 229 3.2 9.7 0.00 0.00 0.00 1 1024.0
20260905213650 17 219 4.8 11.3 0.00 0.00 0.00 1 1024.1
20260905212643 17 205 6.4 14.5 0.00 0.00 0.00 1 1024.1
20260905211638 17 218 6.4 14.5 0.00 0.00 0.00 1 1024.0
20260905210629 17 222 4.8 8.0 0.00 0.00 0.00 1 1023.9
20260905205612 17 228 4.8 11.3 0.00 0.00 0.00 1 1024.0
20260905204554 17 189 4.8 11.3 0.00 0.00 0.00 1 1024.0
20260905203532 17 215 4.8 9.7 0.00 0.00 0.00 1 1024.2
20260905201353 18 229 4.8 11.3 0.00 0.00 0.00 1 1024.1
20260905200335 18 224 3.2 11.3 0.00 0.00 0.00 1 1024.0
20260905195259 18 215 4.8 11.3 0.00 0.00 0.00 1 1024.0
20260905194302 18 217 6.4 12.9 0.00 0.00 0.00 1 1024.0
20260905193251 18 202 6.4 12.9 0.00 0.00 0.00 1 1024.0
20260905192301 18 198 6.4 11.3 0.00 0.00 0.00 1 1023.9
20260905191319 18 211 4.8 8.0 0.00 0.00 0.00 9 1023.8
20260905190331 19 202 3.2 6.4 0.00 0.00 0.00 21 1023.6
20260905185344 19 198 3.2 6.4 0.00 0.00 0.00 28 1023.5
20260905184317 20 173 3.2 6.4 0.00 0.00 0.00 31 1023.6
20260905183334 20 95 1.6 3.2 0.00 0.00 0.00 33 1023.4
20260905182313 20 82 0.0 0.0 0.00 0.00 0.00 36 1023.4
20260905181247 20 79 0.0 0.0 0.00 0.00 0.00 38 1023.3
20260905180254 21 78 0.0 1.6 0.00 0.00 0.00 38 1023.2
20260905174147 21 74 0.0 6.4 0.00 0.00 0.00 40 1023.4
20260905173152 22 64 1.6 6.4 0.00 0.00 0.00 40 1023.2
20260905172132 22 53 1.6 9.7 0.00 0.00 0.00 41 1023.4
20260905171143 23 69 3.2 8.0 0.00 0.00 0.00 42 1023.4
20260905170122 23 42 3.2 8.0 0.00 0.00 0.00 42 1023.4
20260905160545 23 24 3.2 9.7 0.00 0.00 0.00 41 1023.3
20260905155528 23 35 3.2 9.7 0.00 0.00 0.00 41 1023.3
20260905154529 24 51 3.2 8.0 0.00 0.00 0.00 41 1023.4
20260905153536 24 22 3.2 8.0 0.00 0.00 0.00 41 1023.4
20260905152558 25 38 4.8 11.3 0.00 0.00 0.00 40 1023.4
20260905151546 25 44 1.6 12.9 0.00 0.00 0.00 40 1023.5
20260905144258 25 30 0.0 0.0 0.00 0.00 0.00 40 1023.6
20260905143226 24 5 1.6 0.0 0.00 0.00 0.00 40 1023.4
20260905142220 23 5 3.2 9.7 0.00 0.00 0.00 40 1023.3